[[{"header":{"parameterUnit":"m.s-1","parameterCategory":2,"la1":30.2991,"la2":30.254,"lo1":-89.0895,"lo2":-89.0444,"dy":0.0017,"dx":0.0017,"nx":28,"ny":28,"refTime":"2023-04-26T21:00:00:Z","depth":"0","parameterNumber":2,"parameterNumberName":"U-component_of_CURRENTS"},"data":[0,0,0,0,0,0,0,0,0,0,0,0,0,0,0,0,0,0,0,0,0,0,0,0,0,0,0,0,0,0,0,0,0,0,0,0,0,0,0,0,0,0,0,0,0,0,0,0,0,0,0,0,0,0,0,0,0,0,0.3248,0.3248,0,0.3244,0.3243,0.3243,0.3222,0.3222,0.3222,0.3222,0.3188,0.3187,0.3186,0,0,0,0,0,0,0,0,0,0,0,0,0,0.3244,0.3244,0.3248,0.3248,0.3248,0.3244,0.3243,0.3243,0.3222,0.3222,0.3222,0.3222,0.3188,0.3187,0.3186,0,0,0,0,0,0,0,0,0,0,0,0,0,0.3239,0.3244,0.3247,0.3241,0.3241,0.3244,0.3243,0.3243,0.3222,0.3222,0.3222,0.3222,0.3189,0.3187,0.3186,0.3179,0,0,0.3182,0.3181,0,0,0,0,0,0,0,0,0.3239,0.3238,0.3242,0.3242,0.3242,0.3238,0.323,0.3222,0.3222,0.3224,0.3222,0.3222,0.3205,0.3203,0.3195,0.3178,0.3176,0.3182,0.3181,0.3181,0.318,0,0,0,0,0,0,0,0.324,0.3239,0.3241,0.3242,0.3242,0.3242,0.324,0.3228,0.321,0.3224,0.3224,0.3231,0.3204,0.3196,0.3194,0.3176,0.3182,0.3181,0.318,0.318,0.3118,0.3117,0,0,0,0,0,0,0.325,0.3239,0.3241,0.3241,0.3246,0.3242,0.324,0.3235,0.3211,0.3209,0.3231,0.323,0.3199,0.3196,0.3193,0.3152,0.3181,0.3179,0.3179,0.3119,0.3118,0.3117,0,0,0,0,0,0,0.3249,0.3249,0.3241,0.3245,0.3244,0.3243,0.3237,0.3235,0.3228,0.3218,0.3215,0.3227,0.3199,0.3195,0.3172,0.3152,0.3179,0.3178,0.312,0.3118,0.3117,0.309,0,0,0,0,0,0,0.3249,0.3249,0.3245,0.3245,0.3245,0.3235,0.3237,0.3235,0.3236,0.3234,0.3214,0.321,0.3198,0.3174,0.3171,0.315,0.3177,0.3121,0.3119,0.3118,0.3092,0.3088,0.3084,0,0,0,0,0,0.3249,0.3237,0.3244,0.3245,0.324,0.3235,0.3233,0.323,0.3236,0.3224,0.3211,0.3211,0.3162,0.3173,0.3169,0.3147,0.3122,0.312,0.3118,0.3094,0.3089,0.3085,0,0,0,0,0,0,0.3218,0.3235,0.3242,0.3232,0.3235,0.3233,0.3225,0.3232,0.3213,0.321,0.3202,0.3197,0.3171,0.3164,0.3177,0.3125,0.3141,0.3138,0.3124,0.3119,0.3116,0.3108,0.3175,0,0,0,0,0,0.3217,0.3216,0.323,0.3218,0.3222,0.3227,0.3226,0.3225,0.3216,0.3208,0.3198,0.3181,0.316,0.3145,0.3129,0.3101,0.3085,0.3085,0.3081,0.3078,0.3069,0.3029,0.3021,0.311,0.311,0.3111,0,0,0.3198,0.321,0.3206,0.3213,0.3213,0.3204,0.3223,0.3217,0.32,0.3207,0.3176,0.3173,0.3152,0.3118,0.3105,0.3108,0.3042,0.3075,0.3073,0.3066,0.3026,0.3018,0.301,0.3109,0.3109,0.311,0,0,0.3161,0.3174,0.3164,0.317,0.3182,0.3184,0.3186,0.3188,0.318,0.3159,0.3158,0.3141,0.3111,0.309,0.3075,0.3042,0.303,0.3039,0.3005,0.2967,0.2959,0.2952,0.2914,0.2904,0.3029,0.3029,0.3029,0,0.3134,0.313,0.3157,0.3151,0.3151,0.3175,0.3158,0.3151,0.3144,0.3133,0.3142,0.3101,0.3093,0.3046,0.3032,0.3033,0.3009,0.3025,0.2961,0.2954,0.2947,0.291,0.2899,0.3028,0.3028,0.3028,0.3028,0,0.3087,0.3093,0.3086,0.3089,0.309,0.3079,0.3088,0.3082,0.3085,0.3079,0.3049,0.304,0.3014,0.3009,0.3008,0.2956,0.2955,0.2968,0.2973,0.2936,0.29,0.2889,0.3026,0.3026,0.3027,0.3027,0,0,0.2983,0.3044,0.3037,0.3048,0.3061,0.3054,0.3034,0.302,0.3004,0.2997,0.2965,0.294,0.2951,0.2935,0.2938,0.2905,0.2842,0.2912,0.291,0.2874,0.2748,0.27,0.2684,0.2841,0.284,0.2838,0.274,0,0.2929,0.2929,0.2968,0.2952,0.2948,0.298,0.296,0.2953,0.2949,0.2925,0.2918,0.2891,0.2916,0.2905,0.2876,0.2858,0.2812,0.2867,0.2789,0.2787,0.2748,0.2669,0.2516,0.2411,0.2729,0.2727,0.2726,0,0.2846,0.2871,0.2861,0.2904,0.2903,0.2892,0.2878,0.2873,0.2856,0.285,0.2832,0.2834,0.2795,0.2822,0.2755,0.2788,0.2759,0.2742,0.2738,0.2694,0.2717,0.25,0.238,0.2234,0.2709,0.2711,0.2712,0,0.2737,0.2783,0.2783,0.2792,0.2838,0.283,0.2843,0.2836,0.2829,0.2803,0.2782,0.2755,0.2728,0.2698,0.2678,0.2706,0.2597,0.2634,0.2558,0.2555,0.2408,0.2395,0.2135,0.2562,0.2562,0.2562,0.2563,0,0.2644,0.2632,0.2741,0.2727,0.2717,0.2775,0.2745,0.2751,0.2757,0.2725,0.2742,0.2695,0.2692,0.2644,0.2637,0.2553,0.256,0.2524,0.2513,0.2395,0.2382,0.224,0.2181,0.2559,0.256,0.256,0.2561,0,0.2487,0.2568,0.2565,0.2637,0.266,0.2643,0.2689,0.2667,0.2693,0.265,0.2638,0.2625,0.2557,0.2548,0.2486,0.2478,0.2324,0.2391,0.2255,0.223,0.204,0.1987,0.176,0.1784,0.2282,0.228,0.2279,0,0.2385,0.2387,0.2474,0.2479,0.2505,0.2522,0.2523,0.2598,0.259,0.2593,0.2555,0.2501,0.242,0.2326,0.2296,0.2239,0.2195,0.2076,0.2105,0.1968,0.1901,0.1912,0.1953,0.1896,0.1891,0.1888,0.1885,0,0.2186,0.2242,0.2258,0.23,0.2319,0.2336,0.2361,0.2377,0.2453,0.2423,0.2374,0.2319,0.223,0.2066,0.201,0.1999,0.1935,0.1997,0.1865,0.1566,0.1545,0.1584,0.204,0.1851,0.1854,0.1856,0.1858,0.186,0.1995,0.1993,0.2055,0.2081,0.2117,0.2131,0.2083,0.2174,0.2171,0.2101,0.216,0.1945,0.1793,0.1689,0.1734,0.1571,0.17,0.1464,0.1408,0.1434,0.1438,0.1828,0.1635,0.1637,0.1638,0.164,0.1641,0,0.174,0.1788,0.1823,0.1854,0.1843,0.1919,0.1937,0.188,0.1854,0.1811,0.1735,0.1358,0.1193,0.1122,0.0968,0.0921,0.1062,0.0882,0.0815,0.0901,0.1205,0.1169,0.0852,0.0852,0.0852,0.0853,0.0853,0.0853,0.1595,0.1562,0.1639,0.1575,0.1596,0.1496,0.1467,0.1431,0.137,0.1127,0.0853,0.0736,0.0436,0.0231,0.0168,0.0292,0.0338,0.0286,0.0428,0.0537,0.0587,0.0635,0.0586,0.0152,0.0151,0.0142,0.014,0.0138]},{"header":{"parameterUnit":"m.s-1","parameterCategory":2,"la1":30.2991,"la2":30.254,"lo1":-89.0895,"lo2":-89.0444,"dy":0.0017,"dx":0.0017,"nx":28,"ny":28,"refTime":"2023-04-26T21:00:00:Z","depth":"0","parameterNumber":3,"parameterNumberName":"V-component_of_CURRENTS"},"data":[0,0,0,0,0,0,0,0,0,0,0,0,0,0,0,0,0,0,0,0,0,0,0,0,0,0,0,0,0,0,0,0,0,0,0,0,0,0,0,0,0,0,0,0,0,0,0,0,0,0,0,0,0,0,0,0,0,0,-0.1954,-0.1954,0,-0.1982,-0.1982,-0.1982,-0.1956,-0.1955,-0.1954,-0.1953,-0.1947,-0.1947,-0.1948,0,0,0,0,0,0,0,0,0,0,0,0,0,-0.1868,-0.187,-0.1954,-0.1954,-0.1955,-0.1981,-0.1982,-0.1982,-0.1956,-0.1955,-0.1953,-0.1952,-0.1946,-0.1947,-0.1948,0,0,0,0,0,0,0,0,0,0,0,0,0,-0.1901,-0.1871,-0.1954,-0.1945,-0.1945,-0.1981,-0.1982,-0.1982,-0.1956,-0.1955,-0.1953,-0.1952,-0.1946,-0.1947,-0.1948,-0.1985,0,0,-0.1952,-0.1952,0,0,0,0,0,0,0,0,-0.1899,-0.1904,-0.1946,-0.1946,-0.1946,-0.1964,-0.1949,-0.1982,-0.1956,-0.1951,-0.1953,-0.1951,-0.1951,-0.1952,-0.1959,-0.1984,-0.1984,-0.1952,-0.1952,-0.1953,-0.1953,0,0,0,0,0,0,0,-0.1897,-0.1903,-0.1964,-0.1947,-0.1947,-0.1937,-0.194,-0.1955,-0.1958,-0.1951,-0.195,-0.1955,-0.195,-0.1958,-0.1959,-0.1984,-0.1952,-0.1953,-0.1953,-0.1954,-0.2025,-0.2026,0,0,0,0,0,0,-0.1898,-0.1901,-0.1963,-0.1965,-0.1919,-0.194,-0.1943,-0.1959,-0.1958,-0.1957,-0.1956,-0.1953,-0.1957,-0.1958,-0.1959,-0.1992,-0.1953,-0.1954,-0.1955,-0.2024,-0.2025,-0.2026,0,0,0,0,0,0,-0.1896,-0.1904,-0.1962,-0.1933,-0.194,-0.1943,-0.1961,-0.1961,-0.1969,-0.1962,-0.196,-0.1965,-0.1956,-0.1957,-0.1978,-0.1992,-0.1954,-0.1955,-0.2022,-0.2024,-0.2026,-0.2065,0,0,0,0,0,0,-0.1894,-0.1903,-0.1922,-0.1934,-0.1942,-0.1997,-0.1963,-0.1962,-0.1975,-0.1972,-0.197,-0.1967,-0.1955,-0.1976,-0.1979,-0.1993,-0.1956,-0.2021,-0.2023,-0.2025,-0.2062,-0.2068,-0.2073,0,0,0,0,0,-0.1891,-0.1932,-0.1923,-0.193,-0.1965,-0.1998,-0.2002,-0.1997,-0.1977,-0.1996,-0.1987,-0.1967,-0.1992,-0.1979,-0.1981,-0.1996,-0.2019,-0.2022,-0.2025,-0.206,-0.2067,-0.2073,0,0,0,0,0,0,-0.1931,-0.1934,-0.1924,-0.197,-0.1984,-0.1994,-0.2019,-0.2006,-0.2016,-0.201,-0.199,-0.1989,-0.2008,-0.2005,-0.199,-0.2023,-0.2001,-0.2004,-0.2026,-0.2033,-0.2038,-0.2045,-0.1957,0,0,0,0,0,-0.1942,-0.1958,-0.1967,-0.2007,-0.2016,-0.2015,-0.2028,-0.2023,-0.203,-0.2032,-0.2026,-0.2022,-0.2024,-0.203,-0.2034,-0.2063,-0.2051,-0.2073,-0.2078,-0.2082,-0.2091,-0.2086,-0.2091,-0.2035,-0.2035,-0.2035,0,0,-0.1967,-0.1975,-0.1984,-0.2013,-0.2023,-0.2048,-0.202,-0.2049,-0.2063,-0.2032,-0.2055,-0.2044,-0.2036,-0.2058,-0.2067,-0.2056,-0.2093,-0.2086,-0.209,-0.2096,-0.2089,-0.2095,-0.2099,-0.2037,-0.2037,-0.2036,0,0,-0.2028,-0.2035,-0.2063,-0.2073,-0.209,-0.2088,-0.2096,-0.2106,-0.2105,-0.2127,-0.2099,-0.21,-0.2113,-0.2106,-0.2103,-0.2147,-0.2119,-0.2147,-0.2183,-0.2178,-0.2182,-0.2185,-0.2176,-0.2178,-0.2151,-0.2151,-0.2151,0,-0.2058,-0.2092,-0.2082,-0.2113,-0.2124,-0.2105,-0.2139,-0.2143,-0.2155,-0.2158,-0.214,-0.2145,-0.2135,-0.2151,-0.216,-0.2158,-0.2149,-0.2155,-0.2183,-0.2187,-0.219,-0.2179,-0.2181,-0.2154,-0.2153,-0.2153,-0.2153,0,-0.2134,-0.2154,-0.218,-0.2195,-0.2211,-0.2241,-0.2235,-0.2245,-0.223,-0.2225,-0.2236,-0.2221,-0.2221,-0.2216,-0.22,-0.2219,-0.2203,-0.2187,-0.2163,-0.2197,-0.2184,-0.2186,-0.2157,-0.2156,-0.2155,-0.2155,0,0,-0.2229,-0.2225,-0.2244,-0.2237,-0.2251,-0.2271,-0.2292,-0.2306,-0.2309,-0.2311,-0.2318,-0.2318,-0.2298,-0.2294,-0.2271,-0.2266,-0.2273,-0.224,-0.2238,-0.2225,-0.226,-0.2217,-0.2214,-0.2258,-0.2259,-0.2259,-0.2241,0,-0.2292,-0.2341,-0.2333,-0.2371,-0.2379,-0.2359,-0.2375,-0.2379,-0.237,-0.2372,-0.2352,-0.2351,-0.2331,-0.2321,-0.2319,-0.2277,-0.2279,-0.2279,-0.2234,-0.2233,-0.2186,-0.2215,-0.2034,-0.2,-0.2242,-0.2242,-0.2243,0,-0.2378,-0.2385,-0.2436,-0.2409,-0.2419,-0.2437,-0.2441,-0.2455,-0.2447,-0.2436,-0.2434,-0.2411,-0.2405,-0.2375,-0.2347,-0.2347,-0.2318,-0.2286,-0.2284,-0.2233,-0.2193,-0.2006,-0.1993,-0.1848,-0.2245,-0.2244,-0.2244,0,-0.2431,-0.2457,-0.2491,-0.2493,-0.2478,-0.2488,-0.2479,-0.2477,-0.2475,-0.2474,-0.2462,-0.2459,-0.2437,-0.2415,-0.2355,-0.2353,-0.2312,-0.2297,-0.2237,-0.2233,-0.2065,-0.2045,-0.1899,-0.229,-0.229,-0.2291,-0.2291,0,-0.2493,-0.2496,-0.2511,-0.2523,-0.254,-0.2523,-0.2536,-0.2525,-0.2512,-0.2509,-0.2496,-0.2484,-0.2444,-0.2411,-0.2372,-0.2306,-0.2329,-0.2251,-0.2229,-0.2074,-0.2057,-0.1913,-0.1815,-0.229,-0.229,-0.229,-0.229,0,-0.2497,-0.2528,-0.254,-0.2555,-0.2557,-0.2567,-0.254,-0.2536,-0.2531,-0.2523,-0.252,-0.2496,-0.245,-0.2404,-0.2349,-0.2311,-0.2109,-0.2232,-0.2053,-0.2011,-0.1831,-0.1742,-0.1541,-0.1397,-0.2169,-0.2168,-0.2167,0,-0.2461,-0.2486,-0.256,-0.2573,-0.2568,-0.2569,-0.2559,-0.255,-0.2541,-0.2527,-0.2521,-0.2481,-0.2436,-0.2342,-0.2234,-0.2151,-0.2025,-0.1974,-0.1945,-0.1801,-0.1686,-0.1613,-0.15,-0.1731,-0.1727,-0.1723,-0.1721,0,-0.235,-0.2425,-0.2461,-0.253,-0.2547,-0.2541,-0.2523,-0.2536,-0.2531,-0.2522,-0.2497,-0.2462,-0.2338,-0.2135,-0.202,-0.1971,-0.1741,-0.1901,-0.1776,-0.1356,-0.1237,-0.1092,-0.1774,-0.1688,-0.1691,-0.1694,-0.1696,-0.1697,-0.2222,-0.2269,-0.2368,-0.2419,-0.2465,-0.2471,-0.2424,-0.246,-0.2453,-0.2406,-0.2435,-0.2319,-0.2018,-0.1811,-0.1753,-0.1466,-0.1507,-0.1364,-0.1278,-0.1231,-0.1047,-0.1676,-0.1558,-0.1561,-0.1563,-0.1564,-0.1566,0,-0.1961,-0.209,-0.2196,-0.227,-0.2304,-0.2352,-0.2347,-0.2308,-0.2296,-0.2309,-0.2257,-0.1941,-0.1611,-0.1376,-0.0993,-0.0835,-0.0758,-0.0764,-0.0582,-0.0507,-0.1075,-0.1014,-0.074,-0.074,-0.074,-0.074,-0.0741,-0.0741,-0.1829,-0.1873,-0.2008,-0.2051,-0.2123,-0.2073,-0.2049,-0.2065,-0.2055,-0.1993,-0.1853,-0.1783,-0.1419,-0.0694,-0.0314,-0.0272,-0.0061,-0.0029,-0.001,-0.0372,-0.0421,-0.0468,-0.0391,0.0008,0.001,0.0619,0.0625,0.0629]}],[{"header":{"parameterUnit":"m.s-1","parameterCategory":2,"la1":30.2991,"la2":30.254,"lo1":-89.0895,"lo2":-89.0444,"dy":0.0017,"dx":0.0017,"nx":28,"ny":28,"refTime":"2023-04-26T21:00:00:Z","depth":"2","parameterNumber":2,"parameterNumberName":"U-component_of_CURRENTS"},"data":[0,0,0,0,0,0,0,0,0,0,0,0,0,0,0,0,0,0,0,0,0,0,0,0,0,0,0,0,0,0,0,0,0,0,0,0,0,0,0,0,0,0,0,0,0,0,0,0,0,0,0,0,0,0,0,0,0,0,0.0355,0.0355,0,0.0369,0.0369,0.0369,0.0391,0.0391,0.0392,0.0392,0.0378,0.0377,0.0376,0,0,0,0,0,0,0,0,0,0,0,0,0,0.0334,0.0334,0.0355,0.0355,0.0356,0.0369,0.0369,0.0369,0.039,0.0391,0.0392,0.0392,0.0378,0.0377,0.0376,0,0,0,0,0,0,0,0,0,0,0,0,0,0.0344,0.0335,0.0355,0.0369,0.0371,0.0369,0.0369,0.0369,0.039,0.0391,0.0392,0.0393,0.0378,0.0377,0.0376,0.0352,0,0,0.0372,0.0371,0,0,0,0,0,0,0,0,0.0343,0.0344,0.0367,0.0368,0.037,0.038,0.0357,0.0363,0.039,0.0381,0.0392,0.0393,0.0376,0.0375,0.0374,0.0351,0.0351,0.0372,0.0371,0.037,0.037,0,0,0,0,0,0,0,0.0343,0.0344,0.0359,0.0367,0.0369,0.037,0.0373,0.0358,0.0372,0.0382,0.0384,0.0388,0.0377,0.0376,0.0374,0.0351,0.0372,0.0371,0.037,0.0369,0.034,0.034,0,0,0,0,0,0,0.0344,0.0343,0.0359,0.036,0.036,0.037,0.0373,0.0375,0.0373,0.0375,0.0387,0.0389,0.0377,0.0376,0.0374,0.0364,0.037,0.0369,0.0369,0.034,0.034,0.034,0,0,0,0,0,0,0.0343,0.0345,0.0358,0.0353,0.0355,0.037,0.0372,0.0375,0.0383,0.0378,0.0378,0.0394,0.0378,0.0376,0.0369,0.0363,0.0369,0.0367,0.034,0.034,0.034,0.0332,0,0,0,0,0,0,0.0342,0.0344,0.0342,0.0353,0.0355,0.0356,0.0372,0.0374,0.0384,0.0387,0.0384,0.0383,0.0378,0.0371,0.0368,0.0361,0.0366,0.034,0.034,0.034,0.0332,0.0332,0.0331,0,0,0,0,0,0.0342,0.0329,0.0342,0.0344,0.0353,0.0356,0.0357,0.037,0.0384,0.0381,0.0386,0.0383,0.037,0.037,0.0366,0.0359,0.034,0.034,0.034,0.0332,0.0332,0.0331,0,0,0,0,0,0,0.0319,0.033,0.0345,0.0338,0.035,0.0361,0.0359,0.0372,0.0374,0.0379,0.0379,0.0378,0.0372,0.0367,0.0368,0.0352,0.0356,0.0355,0.0351,0.035,0.035,0.0349,0.0365,0,0,0,0,0,0.0314,0.0308,0.0327,0.0322,0.033,0.0348,0.0351,0.0363,0.0369,0.0371,0.0371,0.0371,0.0366,0.0361,0.0355,0.0341,0.0341,0.0336,0.0335,0.0335,0.0332,0.0331,0.033,0.0341,0.0341,0.0341,0,0,0.0302,0.031,0.0305,0.0317,0.0329,0.0334,0.0351,0.0358,0.0361,0.0367,0.0367,0.0368,0.0364,0.0353,0.0349,0.0349,0.0332,0.0335,0.0334,0.0332,0.0331,0.033,0.0329,0.0341,0.0341,0.0341,0,0,0.0275,0.0288,0.0276,0.029,0.0309,0.0321,0.0326,0.0342,0.035,0.0349,0.0359,0.036,0.0347,0.0346,0.0343,0.0336,0.0332,0.0333,0.0324,0.0323,0.0322,0.0321,0.0321,0.032,0.0329,0.0329,0.0329,0,0.0268,0.0258,0.0273,0.0276,0.0288,0.0317,0.032,0.0326,0.0338,0.0345,0.0347,0.0349,0.0343,0.034,0.0336,0.0334,0.0333,0.0325,0.0322,0.0321,0.032,0.032,0.032,0.0329,0.0329,0.0329,0.0329,0,0.0234,0.0238,0.0235,0.025,0.0262,0.0268,0.0292,0.0304,0.0319,0.0327,0.0332,0.033,0.0335,0.033,0.0325,0.0319,0.0321,0.0324,0.0322,0.0318,0.0319,0.0318,0.0328,0.0328,0.0329,0.0329,0,0,0.0215,0.021,0.0216,0.0224,0.0255,0.0262,0.0276,0.0295,0.0309,0.0313,0.0322,0.0313,0.0324,0.0322,0.0323,0.0314,0.0305,0.0311,0.0311,0.0309,0.0301,0.0318,0.0319,0.0305,0.0305,0.0305,0.0304,0,0.0197,0.0176,0.019,0.0197,0.0199,0.0241,0.0254,0.0276,0.0294,0.0306,0.0313,0.0321,0.0318,0.0325,0.0314,0.0308,0.0302,0.0305,0.0307,0.0307,0.0321,0.0319,0.022,0.0213,0.0303,0.0303,0.0303,0,0.0178,0.0167,0.0154,0.0177,0.0186,0.0201,0.0244,0.026,0.029,0.0304,0.0318,0.0326,0.0322,0.0321,0.0308,0.0309,0.0304,0.0297,0.0297,0.0315,0.0323,0.0231,0.0208,0.0302,0.0302,0.0302,0.0302,0,0.0156,0.0157,0.0141,0.015,0.0173,0.0194,0.0222,0.0261,0.0275,0.0314,0.0317,0.0327,0.0325,0.0323,0.0316,0.031,0.03,0.0295,0.0308,0.0309,0.0227,0.0222,0.0289,0.0289,0.0289,0.0289,0.0289,0,0.0136,0.014,0.0131,0.0131,0.0142,0.0177,0.0203,0.0241,0.0273,0.028,0.0316,0.0304,0.0322,0.0319,0.0317,0.0313,0.0307,0.0306,0.031,0.0223,0.0218,0.0297,0.0298,0.0289,0.0289,0.0289,0.0289,0,0.0128,0.0112,0.0113,0.0124,0.0132,0.0152,0.0192,0.0211,0.0247,0.0257,0.0269,0.028,0.0281,0.0306,0.0302,0.0312,0.0316,0.0321,0.0224,0.0217,0.0323,0.0324,0.0326,0.0327,0.0327,0.0328,0.0328,0,0.0103,0.0099,0.0109,0.0113,0.0126,0.0148,0.0168,0.0204,0.0213,0.0227,0.0219,0.0232,0.0208,0.023,0.0294,0.0329,0.0316,0.0241,0.0218,0.0323,0.0327,0.0327,0.0327,0.0098,0.0097,0.0096,0.0095,0,0.009,0.011,0.0115,0.0118,0.0133,0.0126,0.0146,0.0135,0.0169,0.0161,0.0127,0.0106,0.0155,0.0121,0.0207,0.023,0.0233,0.0218,0.0338,0.0121,0.0113,0.0116,0.0122,0.0083,0.0084,0.0085,0.0086,0.0086,0.0101,0.0114,0.013,0.0142,0.014,0.0111,0.0077,0.006,0.0038,-0.007,0.0019,-0.0146,-0.0072,-0.0086,0.0066,0.019,0.0229,0.0152,0.0153,0.0157,0.0147,0.0142,0.0115,0.0117,0.0118,0.0119,0.012,0,0.0117,0.0148,0.0152,0.0143,0.0119,0.0123,0.0066,-0.0032,-0.0117,-0.0283,-0.0331,-0.0374,-0.0385,-0.0335,-0.0144,0.0051,0.0073,0.0029,-0.0033,-0.0024,-0.0015,-0.0034,-0.0113,-0.0113,-0.0113,-0.0113,0,0,0.0131,0.0158,0.0164,0.0127,0.0112,0.002,-0.0036,-0.0202,-0.0383,-0.059,-0.0794,-0.0847,-0.0691,-0.0637,-0.0351,-0.0279,-0.0193,-0.025,-0.0087,-0.0184,-0.0177,0.003,0.0008,0,0,0,0,0]},{"header":{"parameterUnit":"m.s-1","parameterCategory":2,"la1":30.2991,"la2":30.254,"lo1":-89.0895,"lo2":-89.0444,"dy":0.0017,"dx":0.0017,"nx":28,"ny":28,"refTime":"2023-04-26T21:00:00:Z","depth":"2","parameterNumber":3,"parameterNumberName":"V-component_of_CURRENTS"},"data":[0,0,0,0,0,0,0,0,0,0,0,0,0,0,0,0,0,0,0,0,0,0,0,0,0,0,0,0,0,0,0,0,0,0,0,0,0,0,0,0,0,0,0,0,0,0,0,0,0,0,0,0,0,0,0,0,0,0,0.0731,0.0731,0,0.0706,0.0706,0.0706,0.0638,0.0637,0.0635,0.0634,0.0582,0.0582,0.0582,0,0,0,0,0,0,0,0,0,0,0,0,0,0.0725,0.0725,0.0731,0.0731,0.073,0.0706,0.0706,0.0706,0.0639,0.0637,0.0635,0.0633,0.0582,0.0582,0.0582,0,0,0,0,0,0,0,0,0,0,0,0,0,0.0717,0.0726,0.0731,0.0694,0.069,0.0706,0.0706,0.0706,0.0639,0.0637,0.0635,0.0633,0.0582,0.0582,0.0582,0.0627,0,0,0.0582,0.0582,0,0,0,0,0,0,0,0,0.0718,0.0718,0.07,0.0696,0.0692,0.0673,0.0685,0.0678,0.064,0.0659,0.0634,0.0631,0.0611,0.0609,0.061,0.0625,0.0623,0.0582,0.0582,0.0582,0.0582,0,0,0,0,0,0,0,0.0718,0.0718,0.0722,0.0699,0.0695,0.0679,0.0676,0.0683,0.0648,0.0657,0.0652,0.0649,0.0609,0.0611,0.0609,0.0622,0.0582,0.0582,0.0582,0.0582,0.0584,0.0584,0,0,0,0,0,0,0.0723,0.0719,0.0723,0.0721,0.0699,0.0681,0.0677,0.0682,0.0648,0.0641,0.0651,0.0646,0.0612,0.0609,0.0606,0.0562,0.0582,0.0582,0.0582,0.0584,0.0584,0.0584,0,0,0,0,0,0,0.0723,0.0724,0.0724,0.0718,0.0717,0.0684,0.0689,0.0682,0.0643,0.0644,0.0636,0.0614,0.061,0.0606,0.0589,0.0563,0.0582,0.0582,0.0584,0.0584,0.0584,0.0536,0,0,0,0,0,0,0.0723,0.0724,0.071,0.0719,0.0717,0.0717,0.0691,0.0683,0.0647,0.0639,0.0611,0.0606,0.0608,0.0589,0.0589,0.0564,0.0582,0.0584,0.0584,0.0584,0.0537,0.0534,0.0532,0,0,0,0,0,0.0723,0.072,0.071,0.0709,0.0706,0.0717,0.0715,0.0684,0.0647,0.0638,0.0615,0.0604,0.0589,0.059,0.059,0.0563,0.0584,0.0584,0.0584,0.0539,0.0535,0.0532,0,0,0,0,0,0,0.07,0.0713,0.0702,0.0699,0.0699,0.0705,0.0685,0.0667,0.0642,0.0614,0.0609,0.0605,0.0581,0.0588,0.0588,0.0567,0.0584,0.0584,0.0549,0.0546,0.0543,0.0518,0.0583,0,0,0,0,0,0.0694,0.069,0.0706,0.0694,0.0695,0.0683,0.0673,0.0654,0.0642,0.0625,0.0606,0.0591,0.0592,0.0577,0.0582,0.0571,0.056,0.0555,0.0552,0.055,0.0532,0.0513,0.0505,0.0584,0.0584,0.0584,0,0,0.0672,0.0683,0.0672,0.0687,0.0679,0.0683,0.067,0.0647,0.063,0.0627,0.0582,0.058,0.059,0.0577,0.0566,0.0569,0.052,0.055,0.0547,0.053,0.0512,0.0504,0.0497,0.0584,0.0584,0.0584,0,0,0.0651,0.0646,0.0642,0.0651,0.0645,0.0649,0.0637,0.0627,0.0598,0.0575,0.0568,0.0551,0.0541,0.0545,0.0548,0.0536,0.0511,0.0528,0.0482,0.0464,0.0456,0.0449,0.0413,0.0403,0.0519,0.0519,0.0519,0,0.0611,0.0628,0.0639,0.0649,0.0645,0.0632,0.0628,0.0615,0.059,0.0566,0.0549,0.0523,0.0529,0.052,0.0508,0.0526,0.0498,0.0491,0.0457,0.045,0.0444,0.0408,0.0398,0.0517,0.0517,0.0517,0.0517,0,0.0607,0.0609,0.0608,0.0619,0.062,0.061,0.061,0.0579,0.0538,0.0522,0.048,0.0487,0.0462,0.047,0.0478,0.0442,0.043,0.0459,0.0459,0.0432,0.0397,0.0388,0.0513,0.0514,0.0515,0.0515,0,0,0.0522,0.0591,0.0575,0.0593,0.06,0.0603,0.0573,0.0554,0.0516,0.0478,0.0431,0.0428,0.0397,0.04,0.0407,0.039,0.0327,0.0387,0.0388,0.0337,0.0252,0.0288,0.0281,0.0336,0.0334,0.0333,0.024,0,0.0496,0.0523,0.0557,0.0558,0.0575,0.057,0.0555,0.0527,0.0487,0.044,0.0417,0.0377,0.0382,0.035,0.0333,0.0335,0.03,0.0348,0.0297,0.0295,0.0319,0.0272,0.0508,0.0448,0.0231,0.0229,0.0228,0,0.0454,0.0495,0.0487,0.0551,0.0551,0.0532,0.049,0.048,0.0426,0.0388,0.033,0.0307,0.0259,0.0275,0.0223,0.0242,0.0225,0.0231,0.0228,0.0269,0.0313,0.0444,0.0439,0.0212,0.0213,0.0215,0.0216,0,0.0369,0.0435,0.0425,0.0437,0.0493,0.0458,0.0467,0.0426,0.0405,0.0323,0.0283,0.0232,0.0188,0.016,0.0147,0.0163,0.0103,0.0139,0.0154,0.0156,0.0352,0.0374,0.0093,0.0093,0.0093,0.0093,0.0093,0,0.0319,0.0319,0.0377,0.0362,0.0347,0.0403,0.035,0.0333,0.031,0.0263,0.0231,0.0186,0.0152,0.0119,0.0112,0.0092,0.0064,0.0122,0.0131,0.0342,0.0363,0.0165,0.0175,0.009,0.009,0.0091,0.0092,0,0.0212,0.0248,0.024,0.028,0.0288,0.0251,0.0283,0.0261,0.0242,0.0173,0.0135,0.0119,0.0066,0.0055,0.0021,0.0049,0.0037,0.0041,0.0276,0.0314,0.0104,0.0112,0.0027,0.0028,0.0028,0.0028,0.0029,0,0.0193,0.0157,0.0131,0.0109,0.0109,0.0106,0.0104,0.016,0.0152,0.0131,0.0096,0.0045,0.0007,-0.0006,0.0053,0.0045,0.0012,0.0257,0.0342,0.0078,0.0095,0.0103,0.011,0.0578,0.0583,0.0587,0.059,0,0.0144,0.0058,0.0034,-0.0034,-0.0061,-0.003,-0.0013,-0.0004,0.0042,0.0015,-0.0009,-0.0031,-0.0003,0.0128,0.016,0.0211,0.0279,0.0331,0.0006,0.0554,0.0589,0.0608,0.06,0.0625,0.0621,0.0619,0.0617,0.0615,0.0075,0.0009,-0.0085,-0.0148,-0.0182,-0.0171,-0.015,-0.0099,-0.0087,-0.0098,-0.0117,-0.0118,0.0135,0.0218,0.0281,0.0388,0.0396,0.0533,0.0525,0.0512,0.0588,0.0622,0.0676,0.0673,0.067,0.0668,0.0666,0,0.0065,-0.0048,-0.0143,-0.0214,-0.0273,-0.0277,-0.0225,-0.0186,-0.0175,-0.017,-0.0216,-0.0043,0.0172,0.0321,0.057,0.068,0.0684,0.0691,0.0772,0.0751,0.0728,0.0812,0.0959,0.0956,0.0953,0.0951,0,0,0.0054,-0.0061,-0.0136,-0.0265,-0.0341,-0.0384,-0.0369,-0.033,-0.0288,-0.0225,-0.0182,-0.0134,0.0214,0.0391,0.0669,0.0801,0.0672,0.0792,0.0621,0.0686,0.0653,0.0787,0.0912,0,0,0,0,0]}],[{"header":{"parameterUnit":"m.s-1","parameterCategory":2,"la1":30.2991,"la2":30.254,"lo1":-89.0895,"lo2":-89.0444,"dy":0.0017,"dx":0.0017,"nx":28,"ny":28,"refTime":"2023-04-26T21:00:00:Z","depth":"4","parameterNumber":2,"parameterNumberName":"U-component_of_CURRENTS"},"data":[0,0,0,0,0,0,0,0,0,0,0,0,0,0,0,0,0,0,0,0,0,0,0,0,0,0,0,0,0,0,0,0,0,0,0,0,0,0,0,0,0,0,0,0,0,0,0,0,0,0,0,0,0,0,0,0,0,0,-0.0799,-0.0801,0,-0.0932,-0.0933,-0.0934,-0.1009,-0.101,-0.1011,-0.1012,-0.119,-0.1194,-0.1197,0,0,0,0,0,0,0,0,0,0,0,0,0,-0.0669,-0.067,-0.0799,-0.0801,-0.0804,-0.0932,-0.0933,-0.0934,-0.1009,-0.101,-0.1011,-0.1012,-0.1189,-0.1193,-0.1198,0,0,0,0,0,0,0,0,0,0,0,0,0,-0.0748,-0.067,-0.0798,-0.0863,-0.087,-0.0932,-0.0933,-0.0934,-0.1009,-0.101,-0.1012,-0.1013,-0.1187,-0.1193,-0.1198,-0.1203,0,0,-0.1216,-0.1218,0,0,0,0,0,0,0,0,-0.0743,-0.0752,-0.0851,-0.0858,-0.0867,-0.0963,-0.0953,-0.1029,-0.1008,-0.0947,-0.1012,-0.1014,-0.1122,-0.1133,-0.1143,-0.1212,-0.1219,-0.1216,-0.122,-0.1222,-0.1224,0,0,0,0,0,0,0,-0.0738,-0.0747,-0.0843,-0.0853,-0.0863,-0.0906,-0.0917,-0.0967,-0.1019,-0.0953,-0.0961,-0.0988,-0.1126,-0.1137,-0.1148,-0.1222,-0.1216,-0.1221,-0.1225,-0.1227,-0.1567,-0.1572,0,0,0,0,0,0,-0.0733,-0.0741,-0.0839,-0.0848,-0.0817,-0.0907,-0.092,-0.0924,-0.1018,-0.1036,-0.0987,-0.0991,-0.1127,-0.1141,-0.1155,-0.1421,-0.1222,-0.1228,-0.1231,-0.1561,-0.1568,-0.1574,0,0,0,0,0,0,-0.0729,-0.0739,-0.0834,-0.0806,-0.0822,-0.0908,-0.0912,-0.0926,-0.0976,-0.1045,-0.1062,-0.1029,-0.1128,-0.1147,-0.1246,-0.1419,-0.123,-0.1235,-0.1555,-0.1563,-0.1571,-0.1791,0,0,0,0,0,0,-0.0724,-0.0736,-0.0781,-0.0804,-0.0824,-0.0882,-0.0912,-0.0928,-0.0993,-0.1,-0.1086,-0.1102,-0.1131,-0.1238,-0.1252,-0.1423,-0.124,-0.1548,-0.1559,-0.1568,-0.1776,-0.1806,-0.1831,0,0,0,0,0,-0.0719,-0.0759,-0.0781,-0.0797,-0.0866,-0.0884,-0.0896,-0.0958,-0.0993,-0.1009,-0.109,-0.1101,-0.1318,-0.1244,-0.1261,-0.1438,-0.1542,-0.1555,-0.1568,-0.1764,-0.18,-0.183,0,0,0,0,0,0,-0.074,-0.0772,-0.0797,-0.0851,-0.0874,-0.09,-0.0966,-0.0975,-0.1048,-0.1083,-0.1132,-0.1154,-0.1311,-0.1326,-0.1244,-0.1568,-0.1449,-0.1465,-0.1593,-0.1627,-0.1653,-0.151,-0.1245,0,0,0,0,0,-0.0761,-0.0792,-0.0817,-0.0865,-0.0895,-0.0932,-0.0969,-0.0981,-0.1034,-0.1068,-0.116,-0.1265,-0.1369,-0.1452,-0.1517,-0.1674,-0.1519,-0.1811,-0.1838,-0.1861,-0.1757,-0.1641,-0.1644,-0.1616,-0.1615,-0.1615,0,0,-0.0794,-0.0811,-0.0841,-0.0872,-0.092,-0.0956,-0.0957,-0.1006,-0.1065,-0.1078,-0.1251,-0.1336,-0.1417,-0.1604,-0.1685,-0.165,-0.1811,-0.1877,-0.1896,-0.1776,-0.1653,-0.1654,-0.1655,-0.1624,-0.1623,-0.1621,0,0,-0.0821,-0.0886,-0.0908,-0.0929,-0.0978,-0.1007,-0.1023,-0.1087,-0.1162,-0.1299,-0.135,-0.1507,-0.1695,-0.1789,-0.1857,-0.206,-0.1926,-0.2149,-0.2214,-0.211,-0.2107,-0.2102,-0.198,-0.1962,-0.2204,-0.2204,-0.2205,0,-0.0843,-0.0881,-0.0921,-0.0935,-0.0988,-0.1032,-0.1067,-0.114,-0.1238,-0.1333,-0.1388,-0.1664,-0.1779,-0.1946,-0.206,-0.2123,-0.199,-0.2096,-0.2133,-0.2125,-0.2116,-0.1991,-0.1968,-0.2217,-0.2215,-0.2214,-0.2213,0,-0.086,-0.0916,-0.0944,-0.0988,-0.1044,-0.1081,-0.1173,-0.1304,-0.1445,-0.1514,-0.1727,-0.1855,-0.1978,-0.2149,-0.2182,-0.2252,-0.2155,-0.2145,-0.2026,-0.213,-0.1996,-0.1968,-0.2234,-0.223,-0.2226,-0.2223,0,0,-0.0766,-0.0924,-0.0916,-0.0966,-0.1074,-0.1088,-0.1289,-0.1433,-0.1536,-0.1726,-0.1832,-0.2126,-0.2126,-0.2188,-0.227,-0.2275,-0.2213,-0.2197,-0.2186,-0.2028,-0.1916,-0.1836,-0.1796,-0.218,-0.2175,-0.2171,-0.1869,0,-0.0747,-0.08,-0.0895,-0.0974,-0.1032,-0.1192,-0.136,-0.1508,-0.1669,-0.1791,-0.1954,-0.2032,-0.2152,-0.2188,-0.2218,-0.2179,-0.2133,-0.2289,-0.1871,-0.1857,-0.1734,-0.176,-0.2156,-0.1847,-0.184,-0.1835,-0.1832,0,-0.0679,-0.0739,-0.0821,-0.1007,-0.1049,-0.1115,-0.1365,-0.1493,-0.1707,-0.1814,-0.1911,-0.1936,-0.1991,-0.2028,-0.1944,-0.2014,-0.1929,-0.1918,-0.1905,-0.1688,-0.1721,-0.1707,-0.1778,-0.1782,-0.1786,-0.179,-0.1793,0,-0.0536,-0.0665,-0.0741,-0.0785,-0.1012,-0.1127,-0.1263,-0.1515,-0.1606,-0.1701,-0.171,-0.1776,-0.1728,-0.1666,-0.168,-0.1744,-0.152,-0.1604,-0.1441,-0.1434,-0.1493,-0.1499,-0.1421,-0.1422,-0.1422,-0.1423,-0.1424,0,-0.0456,-0.0494,-0.0674,-0.0695,-0.0809,-0.1004,-0.1125,-0.1305,-0.1449,-0.1481,-0.1591,-0.1538,-0.1609,-0.1539,-0.1547,-0.1389,-0.1379,-0.1364,-0.1326,-0.1614,-0.1637,-0.1476,-0.1486,-0.1412,-0.1414,-0.1416,-0.1418,0,-0.0308,-0.0421,-0.0484,-0.0686,-0.0738,-0.0805,-0.0983,-0.1075,-0.1207,-0.1211,-0.118,-0.1264,-0.1171,-0.1246,-0.1149,-0.117,-0.1076,-0.1007,-0.1264,-0.1258,-0.1086,-0.1113,-0.0752,-0.0746,-0.0741,-0.0737,-0.0733,0,-0.0278,-0.0293,-0.0399,-0.0431,-0.0517,-0.0626,-0.0735,-0.0921,-0.097,-0.1033,-0.0991,-0.0917,-0.0962,-0.0775,-0.0861,-0.0801,-0.0832,-0.0752,-0.0966,-0.1005,-0.1005,-0.104,-0.1073,-0.0725,-0.0724,-0.0723,-0.0722,0,-0.0232,-0.0234,-0.0286,-0.0324,-0.0385,-0.0448,-0.0571,-0.0563,-0.0754,-0.0789,-0.0761,-0.0742,-0.0642,-0.0665,-0.0615,-0.0602,-0.0813,-0.0701,-0.0714,-0.0914,-0.0969,-0.0982,-0.102,-0.0704,-0.0707,-0.0708,-0.0709,0,-0.0202,-0.0199,-0.0245,-0.0274,-0.0314,-0.0352,-0.0396,-0.0468,-0.0526,-0.0624,-0.056,-0.0571,-0.0592,-0.0543,-0.0496,-0.0485,-0.0512,-0.055,-0.0572,-0.0591,-0.0697,-0.0755,-0.0314,0,0,0,0,0,-0.0223,-0.0223,-0.0231,-0.0276,-0.028,-0.0322,-0.037,-0.0423,-0.0503,-0.0461,-0.0545,-0.0471,-0.0435,-0.0423,-0.0382,-0.0407,-0.0508,-0.0356,-0.0563,-0.0608,-0.0628,-0.0781,0,0,0,0,0,0,-0.0254,-0.0255,-0.024,-0.0272,-0.0291,-0.0332,-0.0361,-0.0397,-0.0395,-0.0448,-0.0425,-0.0445,-0.0409,-0.0464,-0.038,-0.0375,-0.0493,-0.0355,-0.0353,-0.0596,-0.0615,-0.0631,-0.0795,0,0,0,0,0]},{"header":{"parameterUnit":"m.s-1","parameterCategory":2,"la1":30.2991,"la2":30.254,"lo1":-89.0895,"lo2":-89.0444,"dy":0.0017,"dx":0.0017,"nx":28,"ny":28,"refTime":"2023-04-26T21:00:00:Z","depth":"4","parameterNumber":3,"parameterNumberName":"V-component_of_CURRENTS"},"data":[0,0,0,0,0,0,0,0,0,0,0,0,0,0,0,0,0,0,0,0,0,0,0,0,0,0,0,0,0,0,0,0,0,0,0,0,0,0,0,0,0,0,0,0,0,0,0,0,0,0,0,0,0,0,0,0,0,0,0.0127,0.0128,0,0.0175,0.0175,0.0175,0.0244,0.0246,0.0248,0.0249,0.0301,0.0301,0.03,0,0,0,0,0,0,0,0,0,0,0,0,0,0.0062,0.0062,0.0127,0.0128,0.0129,0.0175,0.0175,0.0175,0.0244,0.0246,0.0248,0.025,0.0301,0.0301,0.03,0,0,0,0,0,0,0,0,0,0,0,0,0,0.0092,0.0062,0.0126,0.0174,0.0179,0.0175,0.0175,0.0175,0.0243,0.0246,0.0249,0.0251,0.0301,0.0301,0.03,0.0243,0,0,0.0299,0.0299,0,0,0,0,0,0,0,0,0.009,0.0093,0.0166,0.0171,0.0177,0.0212,0.0172,0.02,0.0242,0.0212,0.0249,0.0252,0.0274,0.0276,0.0269,0.0246,0.0248,0.0299,0.0299,0.0298,0.0298,0,0,0,0,0,0,0,0.0088,0.0091,0.0139,0.0167,0.0174,0.0182,0.0189,0.0176,0.0222,0.0215,0.0221,0.0237,0.0277,0.0269,0.0271,0.0249,0.0299,0.0298,0.0298,0.0298,0.0253,0.0252,0,0,0,0,0,0,0.0094,0.0089,0.0137,0.0141,0.0147,0.0182,0.0189,0.0192,0.0222,0.0231,0.0234,0.024,0.0269,0.0272,0.0273,0.0325,0.0298,0.0298,0.0298,0.0254,0.0253,0.0252,0,0,0,0,0,0,0.0092,0.0097,0.0136,0.0122,0.0129,0.0181,0.0184,0.0192,0.0204,0.0238,0.0247,0.0241,0.0271,0.0274,0.026,0.0323,0.0298,0.0297,0.0255,0.0253,0.0252,0.0352,0,0,0,0,0,0,0.009,0.0096,0.0121,0.0122,0.013,0.0132,0.0182,0.0191,0.0212,0.0219,0.0246,0.0253,0.0274,0.026,0.026,0.0322,0.0297,0.0256,0.0254,0.0253,0.035,0.0354,0.0358,0,0,0,0,0,0.0087,0.0101,0.0121,0.0129,0.0156,0.0131,0.0134,0.0176,0.0209,0.0199,0.0216,0.0253,0.0251,0.0258,0.0257,0.0322,0.0257,0.0255,0.0253,0.0348,0.0353,0.0358,0,0,0,0,0,0,0.0102,0.011,0.0132,0.0156,0.0146,0.0146,0.0173,0.0172,0.0175,0.0195,0.0222,0.0227,0.0225,0.0236,0.0244,0.0294,0.0267,0.0264,0.034,0.0344,0.0348,0.0357,0.0297,0,0,0,0,0,0.0112,0.0117,0.0119,0.0137,0.0147,0.0155,0.0163,0.0163,0.0162,0.0169,0.0189,0.0208,0.0209,0.0248,0.0219,0.0256,0.0268,0.0296,0.03,0.0304,0.0304,0.0375,0.0388,0.0245,0.0245,0.0245,0,0,0.0133,0.0133,0.0146,0.014,0.0158,0.0121,0.0166,0.0162,0.0118,0.017,0.0152,0.0187,0.0198,0.0227,0.0237,0.0266,0.0344,0.0301,0.0306,0.0304,0.0375,0.039,0.0403,0.0243,0.0244,0.0244,0,0,0.013,0.0171,0.0163,0.0138,0.0137,0.0122,0.0115,0.0108,0.011,0.0085,0.0114,0.0188,0.0184,0.0242,0.0263,0.0264,0.0317,0.0273,0.0372,0.0442,0.0456,0.0469,0.0494,0.0508,0.0337,0.0337,0.0337,0,0.0166,0.0137,0.0156,0.0117,0.0101,0.0113,0.0067,0.0046,0.0025,0.0045,0.0083,0.016,0.0192,0.0266,0.0306,0.0283,0.0318,0.037,0.0456,0.0468,0.048,0.0502,0.0516,0.0342,0.0341,0.0341,0.034,0,0.0132,0.0106,0.0103,0.0051,0.0021,-0.0008,-0.0046,-0.0058,-0.0028,-0.0013,0.0057,0.0138,0.0236,0.0266,0.0308,0.0425,0.0417,0.0414,0.0463,0.0502,0.052,0.0533,0.0348,0.0347,0.0345,0.0344,0,0,0.0258,0.0107,0.0122,0.0061,-0.0017,-0.0045,-0.0113,-0.0134,-0.0119,-0.006,0.0004,0.0113,0.0262,0.0293,0.0394,0.0502,0.064,0.0542,0.0544,0.0599,0.0787,0.0682,0.0686,0.0687,0.069,0.0693,0.0766,0,0.025,0.0145,0.0064,-0.0036,-0.0085,-0.0137,-0.0191,-0.0214,-0.0179,-0.0119,0.0033,0.0147,0.0238,0.0391,0.0496,0.057,0.0681,0.0618,0.071,0.0711,0.0643,0.0701,0.0702,0.0776,0.0779,0.0781,0.0783,0,0.0285,0.0191,0.0102,-0.0079,-0.0092,-0.0145,-0.0173,-0.0219,-0.0161,-0.0091,0.008,0.0179,0.0383,0.0457,0.0654,0.0624,0.0732,0.0788,0.0792,0.0669,0.0632,0.0725,0.0807,0.0805,0.0803,0.0802,0.08,0,0.042,0.0228,0.0161,0.0107,-0.0072,-0.0094,-0.0147,-0.0148,-0.0149,0.0015,0.0091,0.0277,0.0442,0.0575,0.07,0.0733,0.0838,0.0887,0.0874,0.0865,0.0897,0.0883,0.1031,0.1031,0.1031,0.1031,0.103,0,0.0467,0.0409,0.0231,0.0211,0.0152,0.0013,0.0022,0.0015,0.0029,0.0072,0.0202,0.0263,0.0497,0.0559,0.0678,0.0777,0.0835,0.0889,0.089,0.0929,0.0918,0.0906,0.0891,0.1033,0.1033,0.1032,0.1032,0,0.0617,0.0514,0.0436,0.0272,0.0232,0.0237,0.0117,0.0131,0.0147,0.0206,0.0291,0.032,0.0427,0.0528,0.0705,0.0758,0.0849,0.0869,0.0845,0.0842,0.0846,0.0835,0.0924,0.0921,0.0919,0.0917,0.0915,0,0.0656,0.0644,0.055,0.0552,0.049,0.0439,0.0419,0.031,0.0287,0.0204,0.0232,0.0299,0.0351,0.0479,0.0563,0.0732,0.0767,0.0821,0.0918,0.0849,0.0843,0.0834,0.0826,0.0911,0.0911,0.091,0.0909,0,0.0712,0.0748,0.0691,0.0708,0.07,0.0638,0.0555,0.0525,0.04,0.0373,0.0289,0.0322,0.0367,0.046,0.0568,0.0674,0.0789,0.0799,0.0808,0.0901,0.0835,0.0829,0.0823,0.0901,0.0902,0.0903,0.0904,0,0.0785,0.0796,0.0782,0.078,0.0822,0.0805,0.0736,0.0616,0.0548,0.0402,0.0341,0.0345,0.0337,0.0417,0.0466,0.0591,0.0683,0.078,0.0793,0.0803,0.0727,0.0623,0.064,0,0,0,0,0,0.0772,0.0771,0.081,0.0801,0.0874,0.085,0.0786,0.0688,0.0522,0.0522,0.0426,0.0457,0.0503,0.0435,0.0572,0.0456,0.0703,0.0611,0.0826,0.0856,0.0865,0.0785,0,0,0,0,0,0,0.0755,0.0785,0.079,0.0825,0.0839,0.0841,0.0821,0.0705,0.0648,0.0524,0.0552,0.0486,0.0537,0.0465,0.0574,0.0581,0.0735,0.06,0.0602,0.085,0.0859,0.0866,0.0787,0,0,0,0,0]}]]